Location: ??????
(55.7522°N, 37.6156°E)
Time: 17:36:49
(UTC+00:00)

Cosmos 2228 Rocket - Pass Details

Date: 14 June 2025
Orbit: 612 x 647 km, 82.5° (Epoch: 13 July)

Event Time Altitude Azimuth Distance (km) Brightness Sun altitude
Exits shadow 21:17:11 10° 212° (SSW) 2,038 5.2 -10.9°
Reaches altitude 10° 21:17:14 10° 212° (SSW) 2,014 5.2 -10.9°
Maximum altitude 21:21:35 49° 288° (WNW) 819 3.8 -10.9°
Drops below altitude 10° 21:25:54 10° 4° (N) 2,008 7.3 -10.9°
Sets 21:28:12 0° 10° (N) 2,914 8.5 -10.9°
